OISF  Fasa Airport

Add Bookmark

Fasa, Iran

Status IATA
Operational FAZ
Latitude Longitude
28° 53' 30" N 53° 43' 23" E
28.891800 53.723301
Local (DST + 5) UTC (GMT + 4)
Oct 25, 2014 06:00 Oct 25, 2014 14:30
Sunrise-Sunset Local UTC
Begin Civil Twilight 05:37 02:07
Sunrise 06:01 02:31
Sunset 05:16 13:46
End Civil Twilight 05:40 14:10

Current Weather

METAR Observed VFR
OISF 251350Z 20006KT CAVOK 24/M01 Q1014 Sat, Oct 25, 2014 @ 13:50 UTC
(40 Minutes ago)
Visual Flight Rules
Wind Visibility Clouds Conditions
200° at 6 knots (11 kph) 10 km or more
  • Clear skies
  • No significant weather
Temperatures Readings Precipitation
Current Temp 24°C (75°F)
Dewpoint -1°C (30°F)
Humidity 19%
Altimeter 29.94"Hg
Sea Level Pressure 1014mb
Field Elevation 4537.4'
None Recorded

Additional weather within a 185.2km radius of OISF

Map ICAO Location
OISS 131.3km W (303°)
OISL 149.8km S (154°)
OISR 176.7km S (197°)
OIBJ 179.3km S (229°)

24 Hour Weather History

Loading
-

24 Hour Weather Graphs

Loading
-

CheckWX.com is intended as a tool to help pilots better visualize weather data. It is not intended as a substitute for an official weather briefing obtained from a Flight Service Station. CheckWX.com does not meet the FAA requirements for an official pre-flight weather briefing. Therefore, it's important that pilots still call and obtain an official FSS pre-flight weather briefing.